Location: The Saddle
(36.8333°N, 80.3417°W)
Time: 11:02:12
(UTC-05:00)

A-11 Canister half - Pass Details

Date: 10 December 2023
Orbit: 1512 x 1687 km, 47.2° (Epoch: 22 February)

Event Time Altitude Azimuth Distance (km) Brightness Sun altitude
Rises 05:05:41 0° 302° (WNW) 4,840 - -26.7°
Reaches altitude 10° 05:08:46 10° 302° (WNW) 3,874 - -26.1°
Exits shadow 05:14:04 38° 302° (WNW) 2,348 9.4 -25.1°
Maximum altitude 05:18:46 87° 215° (SW) 1,676 9.1 -24.2°
Drops below altitude 10° 05:28:59 10° 128° (SE) 3,944 12.0 -22.2°
Sets 05:32:08 0° 128° (SE) 4,931 12.8 -21.5°
